{"data":{"norad_id":47723,"intl_designator":"2021-017B","name":"STARLINK-2107","alt_names":[],"object_type":"PAYLOAD","status":"ACTIVE","operator":null,"country":"US","launch_date":"2021-03-04","launch_site_code":"AFETR","launch_vehicle":null,"mission":null,"orbit_class":"UNKNOWN","rcs_meters":null,"size_class":null,"mass_kg":null,"dimensions":null,"purposes":["comms"],"wikipedia_slug":null,"has_3d_model":false,"image_url":null,"decayed_at":null,"tle_current":{"epoch":"2026-09-20T02:39:14.519808Z","epoch_age_seconds":60757,"freshness":"FRESH","line1":"1 47723U 21017B   26263.11058472  .00030034  00000+0  79320-3 0  9994","line2":"2 47723  53.1607 300.3988 0003666  40.8542 319.2736 15.38217999308750","mean_motion":15.38217999,"eccentricity":0.0003666,"inclination_deg":53.1607,"raan_deg":300.3988,"arg_perigee_deg":40.8542,"mean_anomaly_deg":319.2736,"bstar":0.0007932,"rev_number":30875,"period_min":93.614819286743,"perigee_km":448.87512065842,"apogee_km":453.88252165849,"semimajor_km":6829.5158211585,"source":"CELESTRAK","updated_at":"2026-09-20T09:00:38.599611Z"}}}